sat.trackr.live / text

‹ back to catalog

STARLINK-30497

NORAD 58011 · 2023-153W

PAYLOAD ACTIVE UNKNOWN

§ Identity

Operator
Country
US
Launch date
2023-10-05
Launch site
AFETR
Launch vehicle
Mass (kg)
RCS (m²)

Purposes: comms

External: N2YO · Heavens-Above · Gunter

§ Orbital elements

Epoch: 2026-09-20T16:40:54.707232Z

Period
94.27 min
Inclination
43.0035°
Eccentricity
0.0001071
Mean motion
15.27577918 rev/d
Perigee alt
482.3 km
Apogee alt
483.8 km
Semi-major
6,861.2 km
B*
1.0084e-5
RAAN
45.4342°
Arg perigee
279.6573°
Mean anomaly
80.4158°
Rev number
16,472

§ Raw data

STARLINK-304971 58011U 23153W   26263.69507763  .00000015  00000+0  10084-4 0  99932 58011  43.0035  45.4342 0001071 279.6573  80.4158 15.27577918164720

JSON: /api/v1/satellites/58011 · /tle

For live sub-satellite position, see the globe view (requires WebGL).

§ Visibility from observer

Set your observer location to see the next 7 days of passes ≥ 10°. The values pass through the URL so the page stays shareable.

No JS? Fill the form by hand. The geolocation button needs JavaScript.